This demonstration page uses our WeatherBlox Daily Observations layout. Learn more.

Left ArrowRight Arrow

34.16533, -84.80231

Hourly Observations for September 2, 2017

Temp ( °F °C ) Dew Point ( °F °C ) Humidity (%) Winds ( mph kmh ) Pressure ( in mb ) Visibility ( mi km ) Precip ( " mm )
12:36 am 00:36 Mostly Clear 63 17.2 62 16.7 97 97 Calm 30.03 1017 10 16 0.00 0.00
12:53 am 00:53 Mostly Clear 63 17.2 62 16.7 97 97 Calm 30.00 1016 10 16 0.00 0.00
1:53 am 01:53 Clear 62 16.7 61 16.1 96 96 Calm 30.00 1016 10 16 0.00 0.00
2:53 am 02:53 Clear 61 16.1 61 16.1 100 100 Calm 30.00 1016 10 16 0.00 0.00
3:53 am 03:53 Clear 60 15.6 60 15.6 100 100 Calm 30.00 1016 10 16 0.00 0.00
4:53 am 04:53 Clear 60 15.6 60 15.6 100 100 Calm 30.00 1016 10 16 0.00 0.00
5:53 am 05:53 Clear 59 15 59 15 100 100 Calm 30.01 1016 10 16 0.00 0.00
6:53 am 06:53 Clear 59 15 59 15 100 100 Calm 30.02 1017 10 16 0.00 0.00
7:53 am 07:53 Sunny 60 15.6 60 15.6 100 100 Calm 30.04 1017 10 16 0.00 0.00
8:53 am 08:53 Sunny 63 17.2 61 16.1 93 93 Calm 30.04 1017 10 16 0.00 0.00
9:53 am 09:53 Sunny 68 20 62 16.7 81 81 Calm 30.06 1018 10 16 0.00 0.00
10:53 am 10:53 Sunny 71 21.7 61 16.1 71 71 NNW 6 9 30.07 1018 10 16 0.00 0.00
11:53 am 11:53 Sunny 74 23.3 62 16.7 67 67 VRB 3 6 30.07 1018 10 16 0.00 0.00
12:53 pm 12:53 Sunny 77 25 60 15.6 56 56 VRB 5 7 30.06 1018 10 16 0.00 0.00
1:53 pm 13:53 Sunny 77 25 59 15 54 54 undefined N/A 30.05 1018 10 16 0.00 0.00
2:53 pm 14:53 Partly Cloudy 79 26.1 60 15.6 52 52 VRB 3 6 30.03 1017 10 16 0.00 0.00
3:53 pm 15:53 Mostly Cloudy 80 26.7 58 14.4 47 47 VRB 6 9 30.02 1017 10 16 0.00 0.00
4:53 pm 16:53 Mostly Sunny 80 26.7 59 15 49 49 Calm 30.01 1016 10 16 0.00 0.00
5:53 pm 17:53 Partly Cloudy 79 26.1 58 14.4 49 49 undefined N/A 30.01 1016 10 16 0.00 0.00
6:53 pm 18:53 Mostly Sunny 78 25.6 59 15 52 52 Calm 30.02 1017 10 16 0.00 0.00
7:53 pm 19:53 Sunny 72 22.2 63 17.2 73 73 Calm 30.04 1017 10 16 0.00 0.00
8:53 pm 20:53 Clear 65 18.3 64 17.8 97 97 Calm 30.05 1018 10 16 0.00 0.00
9:53 pm 21:53 Clear 65 18.3 63 17.2 93 93 Calm 30.07 1018 10 16 0.00 0.00
10:53 pm 22:53 Clear 63 17.2 62 16.7 97 97 Calm 30.08 1019 10 16 0.00 0.00
11:53 pm 23:53 Clear 61 16.1 61 16.1 100 100 Calm 30.09 1019 10 16 0.00 0.00

Powered by AerisWeather